Tracking 20040 objects as of 19-Nov-2019
Live streaming from Space Station
objects crossing your sky now

SL-8 DEB

Track SL-8 DEB now!
10-day predictions


NORAD ID: 20435
Int'l Code: 1990-004D
Perigee: 709.9 km
Apogee: 729.7 km
Inclination: 74.0 °
Period: 99.0 minutes
Semi major axis: 7090 km
RCS: 0.0066 m2 (small)
Launch date: January 18, 1990
Source: Commonwealth of Independent States (former USSR) (CIS)
Launch site: PLESETSK MISSILE AND SPACE COMPLEX (PKMTR)

Note: This is SATELLITE DEBRIS
aabbcc
Your satellite tracking list
Your tracking list is empty




NASA's NSSDC Master Catalog

Two Line Element Set (TLE):
1 20435U 90004D   19322.47067670  .00000235  00000-0  62449-4 0  9990
2 20435  74.0274 196.8837 0013968  72.2117 351.0959 14.53991784572725
Source of the keplerian elements: AFSPC